When you browse on this site, cookies collect data to enhance your experience and personalize the content and advertising you see.
Visit our Privacy Policy to learn more. By continuing to use the site, you agree to this use of cookies and data.
  • en France
  • Liste des pays
  • À 7 jours
  • Température de l'eau
  • Carte satellitaire
  • Carte météo
  • Widgets météo
  • user-avatar
    Se connecter

    Météo par heure à Hadiyal

    Ce jour, 11 Décembre, Mardi

    Heure Température Précipitation Vent Pression Humidité
    00:00 -4°C° 0 mm 3 m/s 604 mmHg 64%
    01:00 -4°C° 0 mm 3 m/s 604 mmHg 63%
    02:00 -4°C° 0 mm 3 m/s 604 mmHg 63%
    03:00 -4°C° 0 mm 3 m/s 604 mmHg 62%
    04:00 -4°C° 0 mm 3 m/s 604 mmHg 62%
    05:00 -4°C° 0 mm 3 m/s 604 mmHg 62%
    06:00 -4°C° 0 mm 3 m/s 604 mmHg 62%
    07:00 -2°C° 0 mm 3 m/s 605 mmHg 62%
    08:00 -1°C° 0 mm 3 m/s 605 mmHg 61%
    09:00 0°C° 0 mm 3 m/s 605 mmHg 60%
    10:00 +1°C° 0 mm 3 m/s 605 mmHg 60%
    11:00 +3°C° 0 mm 3 m/s 606 mmHg 60%
    12:00 +4°C° 0 mm 3 m/s 606 mmHg 60%
    13:00 +3°C° 0 mm 3 m/s 605 mmHg 62%
    14:00 +3°C° 0 mm 3 m/s 605 mmHg 64%
    15:00 +1°C° 0 mm 4 m/s 604 mmHg 66%
    16:00 0°C° 0 mm 4 m/s 604 mmHg 68%
    17:00 -1°C° 0 mm 4 m/s 604 mmHg 70%
    18:00 -2°C° 0 mm 4 m/s 603 mmHg 72%
    19:00 -2°C° 0 mm 4 m/s 603 mmHg 71%
    20:00 -1°C° 0 mm 3 m/s 603 mmHg 71%
    21:00 0°C° 0 mm 3 m/s 602 mmHg 71%
    22:00 -1°C° 0 mm 3 m/s 602 mmHg 70%
    23:00 -2°C° 0 mm 4 m/s 602 mmHg 69%

    Demain, 12 Décembre, Mercredi

    Heure Température Précipitation Vent Pression Humidité
    00:00 -2°C° 0 mm 4 m/s 602 mmHg 69%
    01:00 -1°C° 0 mm 3 m/s 603 mmHg 69%
    02:00 -2°C° 0 mm 3 m/s 603 mmHg 70%
    03:00 -2°C° 0 mm 3 m/s 603 mmHg 71%
    04:00 -2°C° 0 mm 3 m/s 604 mmHg 71%
    05:00 -2°C° 0 mm 3 m/s 604 mmHg 72%
    06:00 -4°C° 0 mm 3 m/s 604 mmHg 73%
    07:00 -2°C° 0 mm 3 m/s 605 mmHg 72%
    08:00 -2°C° 0 mm 3 m/s 606 mmHg 72%
    09:00 -1°C° 0 mm 3 m/s 606 mmHg 72%
    10:00 0°C° 0 mm 3 m/s 606 mmHg 68%
    11:00 +1°C° 0 mm 2 m/s 606 mmHg 64%
    12:00 +2°C° 0 mm 2 m/s 607 mmHg 60%
    13:00 +2°C° 0.1 mm 2 m/s 606 mmHg 63%
    14:00 +1°C° 0.1 mm 2 m/s 606 mmHg 66%
    15:00 +1°C° 0.1 mm 2 m/s 605 mmHg 69%
    16:00 -1°C° 0.8 mm 2 m/s 605 mmHg 74%
    17:00 -1°C° 0.8 mm 2 m/s 605 mmHg 78%
    18:00 -2°C° 0.8 mm 2 m/s 604 mmHg 82%
    19:00 -2°C° 0.8 mm 2 m/s 604 mmHg 83%
    20:00 -2°C° 0.8 mm 2 m/s 604 mmHg 84%
    21:00 -2°C° 0.8 mm 2 m/s 604 mmHg 85%
    22:00 -2°C° 0.8 mm 3 m/s 604 mmHg 84%
    23:00 -2°C° 0.8 mm 3 m/s 604 mmHg 84%

    Après-demain, 13 Décembre, Jeudi

    Heure Température Précipitation Vent Pression Humidité
    00:00 -2°C° 0.8 mm 3 m/s 604 mmHg 83%
    01:00 -2°C° 0.4 mm 3 m/s 604 mmHg 84%
    02:00 -2°C° 0.4 mm 3 m/s 604 mmHg 84%
    03:00 -2°C° 0.4 mm 3 m/s 604 mmHg 84%
    04:00 -4°C° 0.1 mm 3 m/s 603 mmHg 84%
    05:00 -4°C° 0.1 mm 3 m/s 603 mmHg 84%
    06:00 -4°C° 0.1 mm 3 m/s 603 mmHg 84%
    07:00 -4°C° 0.1 mm 3 m/s 604 mmHg 83%
    08:00 -4°C° 0.1 mm 3 m/s 604 mmHg 81%
    09:00 -3°C° 0.1 mm 2 m/s 604 mmHg 80%
    10:00 -2°C° 0.2 mm 3 m/s 605 mmHg 79%
    11:00 -2°C° 0.2 mm 3 m/s 605 mmHg 78%
    12:00 -1°C° 0.2 mm 3 m/s 606 mmHg 77%
    13:00 -2°C° 0.1 mm 3 m/s 606 mmHg 78%
    14:00 -2°C° 0.1 mm 3 m/s 606 mmHg 79%
    15:00 -2°C° 0.1 mm 2 m/s 607 mmHg 81%
    16:00 -3°C° 0.1 mm 2 m/s 607 mmHg 81%
    17:00 -4°C° 0.1 mm 2 m/s 607 mmHg 81%
    18:00 -4°C° 0.1 mm 1 m/s 607 mmHg 82%
    19:00 -4°C° 0 mm 1 m/s 607 mmHg 79%
    20:00 -7°C° 0 mm 2 m/s 607 mmHg 76%
    21:00 -7°C° 0 mm 2 m/s 607 mmHg 73%
    22:00 -8°C° 0 mm 2 m/s 607 mmHg 70%
    23:00 -8°C° 0 mm 2 m/s 607 mmHg 68%

    14 Décembre, Vendredi

    Heure Température Précipitation Vent Pression Humidité
    00:00 -8°C° 0 mm 2 m/s 607 mmHg 65%
    01:00 -9°C° 0 mm 2 m/s 607 mmHg 66%
    02:00 -9°C° 0 mm 2 m/s 607 mmHg 66%
    03:00 -9°C° 0 mm 2 m/s 608 mmHg 67%
    04:00 -9°C° 0 mm 2 m/s 608 mmHg 68%
    05:00 -9°C° 0 mm 2 m/s 608 mmHg 69%
    06:00 -9°C° 0 mm 2 m/s 609 mmHg 70%
    07:00 -8°C° 0 mm 2 m/s 609 mmHg 69%
    08:00 -8°C° 0 mm 2 m/s 609 mmHg 68%
    09:00 -7°C° 0 mm 2 m/s 610 mmHg 66%
    10:00 -6°C° 0 mm 2 m/s 610 mmHg 63%
    11:00 -5°C° 0 mm 2 m/s 610 mmHg 61%
    12:00 -3°C° 0 mm 2 m/s 610 mmHg 58%
    13:00 -4°C° 0 mm 2 m/s 610 mmHg 59%
    14:00 -4°C° 0 mm 2 m/s 609 mmHg 59%
    15:00 -4°C° 0 mm 2 m/s 609 mmHg 60%
    16:00 -5°C° 0.1 mm 2 m/s 609 mmHg 65%
    17:00 -6°C° 0.1 mm 2 m/s 609 mmHg 70%
    18:00 -6°C° 0.1 mm 2 m/s 609 mmHg 75%
    19:00 -6°C° 0.2 mm 2 m/s 609 mmHg 77%
    20:00 -6°C° 0.2 mm 2 m/s 609 mmHg 79%
    21:00 -6°C° 0.2 mm 2 m/s 609 mmHg 81%
    22:00 -6°C° 0.3 mm 2 m/s 609 mmHg 82%
    23:00 -6°C° 0.3 mm 2 m/s 609 mmHg 83%

    15 Décembre, Samedi

    Heure Température Précipitation Vent Pression Humidité
    00:00 -6°C° 0.3 mm 2 m/s 609 mmHg 85%
    01:00 -6°C° 0.1 mm 2 m/s 609 mmHg 85%
    02:00 -6°C° 0.1 mm 2 m/s 609 mmHg 85%
    03:00 -7°C° 0.1 mm 2 m/s 609 mmHg 86%
    04:00 -7°C° 0 mm 2 m/s 609 mmHg 85%
    05:00 -8°C° 0 mm 2 m/s 609 mmHg 84%
    06:00 -9°C° 0 mm 2 m/s 608 mmHg 83%
    07:00 -8°C° 0 mm 2 m/s 609 mmHg 80%
    08:00 -7°C° 0 mm 2 m/s 610 mmHg 77%
    09:00 -6°C° 0 mm 2 m/s 610 mmHg 74%
    10:00 -5°C° 0 mm 2 m/s 611 mmHg 72%
    11:00 -4°C° 0 mm 2 m/s 611 mmHg 71%
    12:00 -3°C° 0 mm 2 m/s 611 mmHg 70%
    13:00 -4°C° 0 mm 2 m/s 611 mmHg 71%
    14:00 -4°C° 0 mm 2 m/s 611 mmHg 72%
    15:00 -2°C° 0 mm 1 m/s 611 mmHg 73%
    16:00 -5°C° 0 mm 2 m/s 611 mmHg 74%
    17:00 -7°C° 0 mm 2 m/s 610 mmHg 74%
    18:00 -8°C° 0 mm 2 m/s 610 mmHg 75%
    19:00 -9°C° 0 mm 2 m/s 610 mmHg 72%
    20:00 -9°C° 0 mm 2 m/s 610 mmHg 68%
    21:00 -9°C° 0 mm 2 m/s 610 mmHg 65%
    22:00 -9°C° 0 mm 2 m/s 610 mmHg 66%
    23:00 -9°C° 0 mm 2 m/s 610 mmHg 66%

    16 Décembre, Dimanche

    Heure Température Précipitation Vent Pression Humidité
    00:00 -9°C° 0 mm 2 m/s 610 mmHg 67%
    01:00 -9°C° 0 mm 2 m/s 611 mmHg 69%
    02:00 -9°C° 0 mm 2 m/s 611 mmHg 71%
    03:00 -9°C° 0 mm 2 m/s 611 mmHg 73%
    04:00 -9°C° 0 mm 2 m/s 611 mmHg 74%
    05:00 -9°C° 0 mm 2 m/s 611 mmHg 75%
    06:00 -9°C° 0 mm 2 m/s 611 mmHg 76%
    07:00 -8°C° 0 mm 2 m/s 611 mmHg 75%
    08:00 -8°C° 0 mm 2 m/s 612 mmHg 73%
    09:00 -7°C° 0 mm 2 m/s 612 mmHg 72%
    10:00 -6°C° 0 mm 2 m/s 613 mmHg 69%
    11:00 -5°C° 0 mm 2 m/s 613 mmHg 67%
    12:00 -4°C° 0 mm 2 m/s 613 mmHg 65%
    13:00 -4°C° 0 mm 2 m/s 613 mmHg 66%
    14:00 -4°C° 0 mm 2 m/s 613 mmHg 68%
    15:00 -3°C° 0 mm 1 m/s 612 mmHg 70%
    16:00 -4°C° 0 mm 1 m/s 612 mmHg 70%
    17:00 -6°C° 0 mm 1 m/s 612 mmHg 71%
    18:00 -9°C° 0 mm 2 m/s 611 mmHg 71%
    19:00 -9°C° 0 mm 2 m/s 611 mmHg 68%
    20:00 -9°C° 0 mm 2 m/s 611 mmHg 65%
    21:00 -9°C° 0 mm 2 m/s 611 mmHg 63%
    22:00 -9°C° 0 mm 2 m/s 611 mmHg 62%
    23:00 -9°C° 0 mm 2 m/s 611 mmHg 61%
    Voir plus